Wind_Speed
4 4 4 4 4 4 6 8 9 11 12 12 12 12 11 11 11 11 12 13 13 12 12 12 11 11 12 12 12 11 9 9 8 7 7 6 5 4 4 5 5 5 6
2 2 1 1 1 2 4 6 8 9 11 11 11 11 10 9 10 10 11 12 12 12 11 11 11 10 10 10 11 11 10 9 8 7 6 6 5 4 3 3 3 3 3
1 0 0 1 1 2 4 5 7 8 10 10 11 10 9 8 8 9 9 10 11 11 11 10 10 10 9 9 9 9 9 9 8 7 6 6 5 4 3 2 1 0 0
1 2 2 2 3 4 5 6 7 9 9 9 10 10 10 9 8 8 9 9 10 11 10 10 10 9 9 9 9 8 8 8 7 7 6 6 6 5 4 3 2 2 2
2 3 3 4 4 5 6 7 8 9 9 9 9 10 9 9 9 9 9 10 10 11 11 10 10 9 9 9 9 9 9 9 8 7 7 6 7 6 6 5 4 4 4
4 4 4 5 5 6 7 7 8 9 10 10 10 10 10 10 10 10 10 11 12 11 11 11 10 10 10 10 10 11 11 11 10 9 8 8 8 8 7 7 7 7 6
4 4 4 5 6 7 8 9 10 11 12 12 12 12 12 12 12 12 13 13 13 13 12 11 11 11 11 11 11 12 12 12 12 11 10 10 10 9 9 9 9 9 9
3 4 5 6 7 9 10 11 12 13 14 15 14 14 14 14 15 15 16 16 15 15 14 13 13 13 13 13 13 13 13 13 13 13 12 12 12 11 11 11 10 11 12
4 5 7 9 10 12 13 14 15 16 17 18 18 18 18 18 19 19 20 20 19 18 17 17 17 16 16 17 16 16 16 16 15 14 14 14 14 13 13 13 12 12 13
7 9 11 13 14 15 16 17 18 19 20 21 21 22 22 23 23 23 24 24 24 23 22 21 21 21 21 21 21 20 20 20 19 18 17 16 16 15 15 15 14 13 13
11 12 14 16 17 18 19 20 20 21 23 24 25 26 27 27 27 28 28 28 27 27 27 26 26 26 26 26 26 25 25 25 24 23 21 19 19 18 17 16 16 15 15
16 17 18 19 20 21 22 23 24 24 25 26 27 28 29 30 30 30 30 31 31 31 30 30 30 30 30 30 31 30 29 29 28 27 25 24 23 22 21 20 18 18 17
20 21 22 23 24 25 26 25 26 27 27 28 29 29 30 31 32 32 32 32 33 34 33 33 33 33 33 33 33 33 32 32 31 31 30 28 26 25 24 23 21 20 19
24 25 26 27 28 29 29 30 29 29 29 28 29 29 30 31 31 32 32 32 33 33 34 34 34 33 33 34 34 33 33 34 34 33 33 31 29 28 27 26 24 23 22
28 29 30 31 31 32 32 33 32 31 31 30 29 29 28 29 30 30 30 31 31 31 31 31 31 32 32 32 32 31 31 32 33 33 33 31 31 30 28 27 27 26 25
32 33 34 35 35 35 34 34 33 32 31 31 30 30 30 30 30 30 29 28 27 27 27 27 28 29 30 31 31 31 30 30 31 31 33 33 32 31 30 28 28 28 28
37 37 38 38 37 37 35 34 32 32 32 32 32 31 31 30 30 29 28 27 26 25 26 26 27 29 29 30 31 32 32 31 31 31 31 30 31 30 29 30 29 28 28
41 41 41 41 39 37 35 33 32 32 32 32 31 31 29 28 28 27 26 25 24 24 24 24 25 26 28 29 30 32 33 32 32 32 31 30 31 29 28 28 28 28 29
45 44 44 43 40 37 35 34 33 32 32 31 30 29 28 27 26 25 24 23 22 22 22 22 23 24 26 27 29 30 32 33 33 33 31 30 31 30 29 28 28 29 29
46 44 42 42 39 36 35 34 33 32 32 31 30 29 28 27 25 23 22 21 20 20 21 21 22 24 25 27 28 30 31 32 33 33 32 32 31 30 30 30 29 30 30
43 42 40 38 36 36 35 35 34 32 30 30 29 27 26 25 24 22 21 19 19 20 20 21 22 23 25 27 27 29 30 31 32 32 32 32 31 31 31 31 30 29 29
40 40 36 34 34 34 34 34 33 32 30 29 27 26 25 24 22 21 20 20 20 20 21 22 23 24 25 27 28 28 28 30 31 31 31 32 32 31 31 32 31 30 29
30 24 26 30 32 34 36 35 34 33 31 29 27 25 24 23 22 22 21 21 21 22 23 24 24 24 25 27 28 28 28 28 29 30 30 30 31 31 30 31 31 30 29
37 39 35 31 31 34 35 35 33 31 30 28 27 25 23 23 23 23 23 24 24 24 25 25 25 25 25 26 28 28 28 28 28 27 28 29 30 30 30 31 31 31 30
41 39 39 36 35 33 34 35 33 31 29 26 25 25 24 24 25 25 26 26 26 26 26 27 27 27 26 27 27 28 28 28 27 25 24 27 29 30 30 30 31 31 29
40 40 40 38 37 36 36 35 34 33 30 28 27 27 27 27 28 28 29 30 30 30 29 28 29 28 28 28 28 27 27 27 26 25 23 24 27 29 30 29 30 30 29
Wind_Direction
95 88 79 70 59 35 13 5 1 360 2 6 10 14 17 21 24 26 27 27 26 24 21 18 17 19 24 28 27 22 18 20 24 29 35 41 50 65 78 79 77 84 95
107 99 77 51 33 8 352 346 345 345 346 351 356 1 6 12 17 21 22 23 21 18 15 12 9 8 10 15 21 21 17 10 7 9 12 19 28 42 60 75 77 79 92
215 185 241 279 290 309 320 324 327 331 334 338 343 348 351 356 4 10 13 14 13 10 8 5 1 358 357 358 3 9 11 9 2 356 352 350 356 7 19 30 48 51 323
243 247 256 267 279 292 303 311 316 320 323 328 332 336 339 341 346 352 357 1 2 0 358 355 353 348 344 342 341 344 348 351 354 351 345 335 326 326 332 335 325 293 274
251 258 263 271 281 291 300 307 312 314 317 318 321 324 326 328 332 336 341 346 349 350 349 348 346 343 338 333 330 327 326 327 329 334 337 332 318 311 304 303 301 294 281
260 266 277 289 297 302 306 309 311 312 311 311 312 313 315 316 320 324 328 332 336 339 341 343 344 344 342 337 331 326 322 318 316 317 319 322 317 313 302 293 288 286 285
275 282 295 308 316 320 319 317 315 313 310 308 306 306 307 309 312 314 317 320 323 326 328 332 335 337 338 336 333 329 326 322 317 311 309 309 305 307 301 294 286 280 280
291 306 319 325 328 328 326 322 318 314 310 306 303 302 301 303 305 306 308 309 311 313 314 315 318 320 322 323 324 325 323 321 318 315 309 303 299 298 296 294 286 281 279
307 317 324 326 326 325 321 318 314 311 307 304 300 298 297 297 297 298 298 299 299 299 300 302 303 305 307 308 310 312 313 311 312 312 310 306 299 294 290 288 285 281 283
307 314 318 321 321 320 318 314 310 307 303 300 296 294 292 291 291 291 291 291 291 290 291 292 294 295 297 298 299 301 302 302 303 303 303 303 300 296 289 283 279 278 281
302 308 313 318 318 317 316 313 309 305 301 297 294 291 289 288 287 286 286 286 287 287 287 287 288 289 290 291 291 292 293 292 294 295 295 295 295 294 289 282 276 273 273
303 306 311 316 316 315 315 314 310 306 302 297 293 290 288 286 284 283 284 285 285 285 285 285 285 286 286 286 287 287 286 286 287 288 289 290 288 286 285 280 275 271 269
303 306 309 313 314 313 311 311 308 305 303 299 295 291 287 284 282 281 280 280 282 283 283 283 282 282 282 282 282 282 281 280 281 283 283 283 282 279 280 277 272 269 266
300 303 306 309 311 311 309 308 307 305 302 299 295 293 290 287 284 283 282 281 279 279 280 281 283 284 284 282 283 282 280 277 276 277 278 279 277 276 275 275 270 265 263
297 299 302 305 306 306 306 306 305 304 303 301 297 294 292 290 288 286 284 283 283 282 281 281 282 283 283 282 284 284 282 283 277 276 275 273 272 271 271 271 269 264 260
294 296 298 300 302 302 302 303 303 302 302 301 299 295 292 290 290 289 287 288 287 286 286 286 286 286 287 288 288 286 284 284 284 280 275 271 268 268 267 269 268 266 262
291 292 294 295 296 297 298 299 300 301 301 300 298 295 292 290 289 287 286 285 286 285 284 285 287 287 288 288 287 286 284 282 281 281 278 274 271 269 269 269 268 265 263
287 288 289 290 291 292 294 296 297 299 300 299 297 295 293 290 287 285 284 283 283 283 284 286 288 290 290 289 288 286 284 283 281 279 276 274 274 272 269 269 267 264 262
283 283 284 285 287 288 290 293 294 297 299 297 296 294 291 287 285 282 279 279 280 281 284 287 290 293 294 294 292 289 286 284 281 278 276 274 272 271 269 268 267 265 262
278 279 279 280 282 284 287 290 292 295 296 294 292 290 287 284 280 275 274 274 277 281 285 289 294 297 299 299 297 294 290 286 282 278 275 273 270 269 268 267 266 265 261
275 275 274 273 276 281 284 288 290 292 294 293 289 285 281 277 272 269 269 272 276 280 285 290 294 298 301 302 302 300 296 290 284 278 273 270 267 266 265 265 264 262 259
267 265 265 269 277 281 285 287 290 292 293 293 288 282 276 270 264 262 265 271 275 280 284 288 293 298 301 304 305 304 300 295 288 281 273 268 265 265 264 265 263 260 259
269 275 284 277 280 285 288 289 292 292 291 290 286 279 272 266 261 262 266 270 275 279 283 286 290 295 300 304 307 308 305 299 291 284 277 269 264 261 261 263 261 260 260
287 295 299 292 290 290 292 292 291 291 290 289 284 276 268 262 261 263 266 270 275 280 283 285 289 294 299 303 307 308 309 305 297 287 278 271 265 260 258 259 262 263 260
295 295 299 299 297 294 294 293 290 293 292 289 283 276 271 266 262 264 268 271 275 279 284 286 290 294 298 302 304 306 308 308 304 295 282 272 265 260 256 257 260 262 261
293 295 296 296 298 296 295 294 293 292 292 288 282 277 274 270 267 265 268 271 274 278 281 284 288 292 295 299 303 305 307 307 305 299 290 276 266 261 257 256 257 261 262
Height
5917 5916 5916 5916 5916 5916 5916 5916 5915 5914 5913 5912 5911 5910 5909 5907 5906 5905 5903 5902 5902 5901 5900 5899 5898 5897 5896 5895 5893 5893 5892 5891 5891 5891 5890 5890 5889 5889 5889 5890 5890 5890 5890
5917 5917 5917 5917 5917 5916 5916 5916 5916 5915 5914 5912 5911 5910 5909 5908 5907 5906 5904 5903 5902 5902 5901 5900 5899 5898 5897 5896 5895 5894 5893 5892 5892 5892 5891 5891 5891 5890 5890 5891 5891 5891 5892
5916 5916 5916 5916 5916 5916 5916 5916 5915 5914 5913 5912 5911 5910 5910 5909 5908 5907 5905 5904 5903 5902 5901 5900 5899 5898 5898 5897 5896 5895 5894 5893 5893 5892 5892 5892 5892 5891 5891 5891 5892 5892 5892
5915 5916 5916 5916 5916 5915 5915 5915 5914 5914 5913 5912 5911 5910 5909 5909 5908 5907 5906 5905 5904 5902 5901 5900 5899 5899 5898 5897 5896 5896 5895 5894 5893 5893 5893 5892 5892 5892 5892 5892 5892 5892 5892
5915 5915 5915 5915 5915 5914 5914 5913 5913 5912 5912 5911 5911 5910 5909 5908 5908 5907 5906 5905 5903 5902 5901 5900 5899 5898 5898 5897 5896 5896 5895 5894 5894 5893 5893 5893 5892 5892 5892 5892 5892 5892 5892
5914 5913 5913 5913 5913 5913 5912 5912 5912 5911 5911 5910 5910 5909 5908 5908 5907 5906 5905 5904 5903 5902 5901 5900 5899 5898 5897 5897 5896 5895 5895 5894 5893 5893 5892 5892 5892 5892 5892 5892 5892 5892 5892
5913 5912 5912 5912 5912 5911 5911 5911 5910 5910 5909 5909 5908 5908 5907 5906 5906 5905 5904 5903 5902 5901 5900 5899 5898 5897 5897 5896 5895 5894 5894 5893 5893 5892 5892 5892 5891 5891 5891 5891 5891 5891 5891
5912 5911 5911 5911 5910 5910 5910 5909 5909 5908 5908 5907 5906 5906 5905 5904 5904 5903 5902 5901 5900 5899 5899 5898 5897 5896 5895 5895 5894 5893 5892 5891 5891 5891 5891 5891 5890 5890 5890 5890 5890 5890 5890
5910 5910 5910 5909 5909 5908 5908 5907 5906 5906 5905 5904 5904 5903 5902 5901 5901 5900 5899 5898 5897 5896 5896 5895 5894 5894 5893 5892 5892 5891 5890 5889 5889 5889 5889 5889 5889 5889 5888 5888 5888 5888 5889
5909 5908 5908 5907 5907 5906 5905 5904 5903 5903 5902 5901 5900 5899 5898 5898 5897 5896 5895 5893 5893 5892 5891 5891 5891 5890 5890 5889 5889 5888 5887 5886 5886 5886 5886 5886 5886 5886 5886 5886 5886 5887 5887
5907 5906 5906 5905 5904 5903 5902 5901 5900 5899 5898 5897 5896 5895 5894 5893 5892 5891 5890 5889 5888 5887 5887 5886 5886 5885 5885 5885 5884 5884 5884 5883 5882 5882 5883 5883 5883 5883 5883 5883 5884 5884 5884
5903 5903 5902 5901 5900 5899 5898 5896 5895 5894 5893 5892 5891 5889 5888 5888 5887 5886 5886 5884 5883 5882 5881 5880 5880 5880 5879 5879 5879 5879 5878 5878 5878 5878 5879 5879 5879 5879 5879 5880 5880 5881 5881
5899 5898 5897 5896 5895 5893 5892 5891 5890 5889 5887 5886 5884 5883 5882 5881 5880 5880 5880 5879 5877 5876 5875 5874 5873 5872 5872 5872 5872 5872 5872 5872 5872 5872 5873 5873 5873 5874 5875 5875 5876 5877 5878
5895 5893 5892 5891 5890 5888 5886 5885 5883 5882 5881 5879 5878 5876 5875 5874 5873 5873 5873 5872 5871 5870 5869 5868 5867 5866 5866 5865 5865 5865 5865 5865 5864 5865 5866 5867 5866 5868 5869 5869 5870 5872 5873
5890 5888 5887 5885 5884 5882 5880 5878 5876 5874 5873 5872 5871 5870 5869 5867 5866 5865 5865 5864 5863 5862 5862 5862 5861 5859 5859 5858 5857 5857 5857 5857 5857 5858 5859 5859 5860 5861 5862 5863 5864 5866 5868
5884 5882 5880 5878 5876 5874 5872 5870 5869 5867 5866 5865 5864 5863 5862 5860 5859 5858 5858 5857 5857 5856 5855 5854 5854 5853 5852 5851 5850 5850 5850 5850 5850 5850 5851 5851 5851 5852 5855 5856 5858 5859 5861
5876 5874 5872 5870 5869 5866 5865 5863 5862 5860 5859 5858 5856 5855 5855 5854 5853 5852 5851 5851 5850 5850 5849 5848 5847 5846 5846 5845 5844 5843 5843 5843 5843 5844 5843 5842 5843 5844 5847 5849 5851 5852 5854
5867 5866 5863 5861 5860 5858 5857 5855 5855 5854 5852 5851 5849 5848 5848 5847 5846 5845 5845 5844 5844 5844 5843 5842 5841 5840 5839 5838 5837 5836 5835 5835 5836 5836 5836 5837 5837 5838 5840 5841 5843 5845 5847
5857 5856 5854 5852 5852 5852 5850 5848 5848 5847 5845 5844 5842 5841 5841 5840 5840 5839 5839 5839 5838 5838 5837 5836 5835 5834 5833 5831 5830 5829 5828 5828 5828 5828 5828 5829 5829 5831 5832 5834 5836 5837 5839
5846 5843 5842 5843 5844 5844 5843 5842 5840 5839 5838 5837 5836 5835 5834 5834 5834 5833 5833 5833 5833 5832 5832 5830 5829 5828 5826 5824 5823 5822 5820 5820 5819 5820 5821 5821 5822 5823 5825 5826 5828 5830 5832
5834 5829 5830 5833 5834 5835 5835 5834 5833 5832 5831 5830 5829 5829 5828 5828 5828 5828 5828 5828 5828 5827 5826 5825 5824 5822 5821 5818 5816 5815 5813 5811 5811 5811 5812 5813 5814 5815 5816 5816 5818 5822 5823
5822 5815 5811 5817 5823 5825 5825 5825 5825 5824 5824 5824 5822 5822 5822 5822 5822 5822 5823 5823 5823 5822 5821 5820 5819 5817 5815 5812 5810 5808 5806 5805 5802 5802 5803 5804 5805 5807 5808 5808 5809 5812 5815
5811 5800 5804 5808 5814 5815 5818 5818 5818 5817 5816 5816 5816 5816 5816 5816 5816 5817 5817 5817 5817 5817 5816 5815 5813 5811 5810 5807 5803 5801 5799 5797 5795 5794 5794 5795 5797 5798 5800 5800 5801 5802 5805
5809 5808 5808 5809 5808 5809 5810 5810 5810 5809 5809 5809 5808 5808 5809 5810 5810 5811 5811 5811 5811 5811 5810 5809 5807 5805 5804 5801 5798 5794 5792 5789 5787 5787 5786 5786 5788 5789 5791 5793 5794 5796 5798
5809 5808 5806 5806 5804 5803 5802 5803 5802 5802 5802 5802 5802 5802 5802 5803 5804 5804 5805 5805 5804 5804 5803 5802 5801 5799 5797 5795 5793 5789 5786 5782 5779 5779 5779 5779 5779 5780 5782 5785 5787 5788 5790
5805 5803 5801 5800 5799 5798 5796 5795 5794 5795 5794 5795 5795 5795 5796 5796 5796 5797 5798 5798 5797 5797 5796 5795 5794 5792 5791 5789 5786 5783 5781 5777 5774 5772 5772 5772 5772 5772 5774 5776 5779 5780 5782